[[{"header":{"parameterUnit":"m.s-1","parameterCategory":1,"la1":30.2991,"la2":30.254,"lo1":-89.0895,"lo2":-89.0444,"dy":0.0017,"dx":0.0017,"nx":28,"ny":28,"refTime":"2023-07-20T03:00:00:Z","depth":0,"parameterNumber":2,"parameterNumberName":"U-component_of_WINDS"},"data":[0,0,0,0,0,0,0,0,0,0,0,0,0,0,0,0,0,0,0,0,0,0,0,0,0,0,0,0,0,0,0,0,0,0,0,0,0,0,0,0,0,0,0,0,0,0,0,0,0,0,0,0,0,0,0,0,0,0,1.4099,1.4099,0,1.4143,1.4144,1.4144,1.4129,1.4128,1.4127,1.4126,1.4176,1.4178,1.418,0,0,0,0,0,0,0,0,0,0,0,0,0,1.4006,1.4008,1.4099,1.4099,1.41,1.4143,1.4144,1.4144,1.4129,1.4128,1.4127,1.4125,1.4175,1.4178,1.4181,0,0,0,0,0,0,0,0,0,0,0,0,0,1.4048,1.4009,1.4099,1.4097,1.4098,1.4143,1.4144,1.4144,1.4129,1.4128,1.4126,1.4125,1.4174,1.4178,1.4181,1.4232,0,0,1.4191,1.4193,0,0,0,0,0,0,0,0,1.4046,1.4052,1.4097,1.4098,1.4098,1.4129,1.4129,1.4174,1.413,1.4117,1.4126,1.4124,1.4162,1.4166,1.4178,1.4234,1.4236,1.4192,1.4194,1.4195,1.4196,0,0,0,0,0,0,0,1.4043,1.405,1.4117,1.4098,1.4098,1.4096,1.4101,1.4138,1.4148,1.4118,1.4117,1.4123,1.4162,1.4175,1.4179,1.4237,1.4192,1.4195,1.4197,1.4198,1.4338,1.434,0,0,0,0,0,0,1.4039,1.4047,1.4115,1.4118,1.4068,1.4099,1.4104,1.4121,1.4147,1.415,1.4124,1.4122,1.417,1.4175,1.4181,1.4242,1.4195,1.4198,1.42,1.4336,1.4338,1.434,0,0,0,0,0,0,1.4037,1.4045,1.4113,1.4082,1.4091,1.4102,1.4121,1.4122,1.4135,1.4151,1.4153,1.4135,1.4169,1.4176,1.4219,1.4244,1.42,1.4203,1.4334,1.4337,1.4339,1.4366,0,0,0,0,0,0,1.4035,1.4045,1.4063,1.4083,1.4092,1.415,1.4123,1.4124,1.414,1.4138,1.4162,1.4165,1.4168,1.4214,1.4222,1.4248,1.4206,1.4332,1.4336,1.4339,1.4363,1.4369,1.4374,0,0,0,0,0,1.4031,1.4069,1.4064,1.4072,1.4115,1.4151,1.4157,1.4158,1.4142,1.4161,1.4172,1.4164,1.424,1.4219,1.4228,1.4255,1.4331,1.4335,1.4338,1.436,1.4368,1.4374,0,0,0,0,0,0,1.4053,1.4072,1.4066,1.4111,1.4129,1.4148,1.4172,1.4166,1.4191,1.4188,1.419,1.4196,1.424,1.4252,1.4228,1.4306,1.4283,1.4289,1.4296,1.4304,1.4309,1.4306,1.4208,0,0,0,0,0,1.4063,1.4089,1.4105,1.4143,1.4152,1.4161,1.4177,1.4176,1.4196,1.4204,1.4218,1.4239,1.4267,1.4286,1.4313,1.4364,1.437,1.4387,1.4393,1.4397,1.4403,1.4432,1.444,1.4353,1.4353,1.4353,0,0,1.4084,1.4098,1.4114,1.4148,1.4162,1.419,1.4168,1.4198,1.422,1.4209,1.425,1.4261,1.4285,1.4332,1.4354,1.4343,1.4428,1.4402,1.4406,1.4409,1.4436,1.4445,1.4452,1.4355,1.4355,1.4354,0,0,1.4137,1.415,1.4183,1.4198,1.4219,1.4224,1.4233,1.4252,1.4259,1.43,1.4292,1.4319,1.4368,1.4385,1.44,1.4461,1.4455,1.447,1.45,1.4528,1.4535,1.4541,1.4563,1.4571,1.4475,1.4475,1.4475,0,1.4162,1.4202,1.4202,1.4233,1.4249,1.4239,1.4274,1.4289,1.4319,1.433,1.4318,1.4379,1.4394,1.4446,1.446,1.4473,1.4483,1.4467,1.4533,1.4539,1.4545,1.4567,1.4575,1.4476,1.4476,1.4476,1.4476,0,1.4231,1.426,1.4285,1.4312,1.4331,1.4364,1.437,1.4389,1.4388,1.4395,1.4438,1.4456,1.4486,1.4499,1.4498,1.4551,1.4544,1.4532,1.451,1.4555,1.4575,1.4583,1.4479,1.4478,1.4478,1.4477,0,0,1.43,1.4326,1.4335,1.4348,1.4371,1.4394,1.4428,1.4456,1.4473,1.4494,1.4523,1.4565,1.4554,1.4572,1.4573,1.4598,1.4645,1.4583,1.4584,1.4595,1.4706,1.4714,1.4724,1.4641,1.4643,1.4644,1.4704,0,1.4355,1.4412,1.4413,1.4466,1.4493,1.4485,1.4514,1.4532,1.454,1.4566,1.4575,1.4605,1.4588,1.4599,1.4623,1.4634,1.4668,1.463,1.467,1.4671,1.4664,1.4734,1.4744,1.4799,1.4712,1.4713,1.4714,0,1.4427,1.4449,1.4505,1.4524,1.4536,1.4562,1.4589,1.4613,1.4634,1.4638,1.4657,1.4655,1.4691,1.4667,1.4717,1.4692,1.4708,1.4716,1.4719,1.4723,1.4696,1.4741,1.4817,1.4826,1.4726,1.4725,1.4724,0,1.4472,1.4516,1.4555,1.4566,1.4589,1.4608,1.4619,1.4639,1.4656,1.468,1.4692,1.472,1.4736,1.4759,1.4765,1.4747,1.4816,1.4792,1.4822,1.4822,1.4837,1.4836,1.4917,1.4847,1.4847,1.4846,1.4846,0,1.4534,1.4569,1.4575,1.4599,1.4638,1.464,1.4679,1.4689,1.4706,1.4733,1.4728,1.4754,1.476,1.4788,1.4793,1.4834,1.4841,1.4847,1.4848,1.4848,1.4847,1.4859,1.4855,1.4849,1.4848,1.4848,1.4847,0,1.4591,1.4597,1.4639,1.4658,1.4663,1.4691,1.4708,1.4732,1.4739,1.4773,1.4782,1.4794,1.4826,1.4834,1.4873,1.4876,1.4926,1.4923,1.4918,1.4918,1.4947,1.4945,1.504,1.5052,1.4973,1.4974,1.4974,0,1.4631,1.4657,1.4678,1.4695,1.4707,1.4734,1.4752,1.4755,1.4773,1.48,1.4821,1.4852,1.4877,1.4929,1.4943,1.4973,1.4971,1.5002,1.4975,1.4974,1.4972,1.4971,1.4974,1.5007,1.5008,1.5009,1.5009,0,1.47,1.4702,1.4726,1.4752,1.4773,1.4794,1.4814,1.4829,1.4835,1.4857,1.4888,1.4908,1.4947,1.4979,1.5009,1.5022,1.5017,1.5018,1.5026,1.5026,1.5022,1.5025,1.4932,1.5015,1.5015,1.5014,1.5014,1.5014,1.475,1.4773,1.4792,1.482,1.4835,1.4854,1.4877,1.4887,1.4913,1.4944,1.4945,1.498,1.5002,1.5042,1.5056,1.5085,1.5076,1.5088,1.5091,1.5094,1.5097,1.5017,1.5091,1.5091,1.509,1.509,1.509,0,1.482,1.4831,1.4857,1.4885,1.4907,1.4899,1.4921,1.4941,1.4971,1.4991,1.5016,1.5053,1.5084,1.5099,1.513,1.515,1.5149,1.5158,1.5157,1.5161,1.5103,1.5093,1.5159,1.5159,1.5159,1.5159,1.5159,1.5159,1.4859,1.4898,1.4901,1.4948,1.496,1.4993,1.5007,1.5025,1.5041,1.5082,1.5107,1.5116,1.5135,1.5167,1.5196,1.52,1.5212,1.5222,1.5225,1.5172,1.5165,1.5158,1.5148,1.5225,1.5225,1.528,1.528,1.5281]},{"header":{"parameterUnit":"m.s-1","parameterCategory":1,"la1":30.2991,"la2":30.254,"lo1":-89.0895,"lo2":-89.0444,"dy":0.0017,"dx":0.0017,"nx":28,"ny":28,"refTime":"2023-07-20T03:00:00:Z","depth":0,"parameterNumber":3,"parameterNumberName":"V-component_of_WINDS"},"data":[0,0,0,0,0,0,0,0,0,0,0,0,0,0,0,0,0,0,0,0,0,0,0,0,0,0,0,0,0,0,0,0,0,0,0,0,0,0,0,0,0,0,0,0,0,0,0,0,0,0,0,0,0,0,0,0,0,0,2.7679,2.7679,0,2.7724,2.7725,2.7725,2.7726,2.7726,2.7725,2.7725,2.7769,2.777,2.7772,0,0,0,0,0,0,0,0,0,0,0,0,0,2.7589,2.7591,2.7679,2.7679,2.768,2.7724,2.7725,2.7725,2.7726,2.7726,2.7725,2.7725,2.7768,2.777,2.7772,0,0,0,0,0,0,0,0,0,0,0,0,0,2.763,2.7591,2.7679,2.7686,2.7687,2.7724,2.7725,2.7725,2.7727,2.7726,2.7725,2.7724,2.7767,2.777,2.7772,2.7804,0,0,2.778,2.7781,0,0,0,0,0,0,0,0,2.7628,2.7634,2.7684,2.7685,2.7687,2.7719,2.7709,2.7752,2.7727,2.7711,2.7725,2.7724,2.7752,2.7756,2.7766,2.7806,2.7808,2.778,2.7782,2.7783,2.7783,0,0,0,0,0,0,0,2.7625,2.7632,2.7697,2.7685,2.7686,2.7685,2.769,2.7717,2.7736,2.7713,2.7713,2.7718,2.7753,2.7764,2.7767,2.7809,2.778,2.7782,2.7784,2.7785,2.7874,2.7875,0,0,0,0,0,0,2.7621,2.7629,2.7695,2.7698,2.7655,2.7688,2.7693,2.7709,2.7736,2.7739,2.7719,2.7718,2.776,2.7764,2.7769,2.7806,2.7783,2.7785,2.7787,2.7873,2.7874,2.7875,0,0,0,0,0,0,2.762,2.7627,2.7693,2.7664,2.7672,2.769,2.7708,2.7711,2.7722,2.7741,2.7743,2.7727,2.776,2.7765,2.7795,2.7808,2.7786,2.7789,2.7872,2.7873,2.7874,2.7882,0,0,0,0,0,0,2.7617,2.7627,2.764,2.7664,2.7674,2.772,2.7709,2.7712,2.7726,2.7726,2.7749,2.7752,2.7759,2.7791,2.7797,2.7811,2.7791,2.7871,2.7873,2.7874,2.788,2.7883,2.7885,0,0,0,0,0,2.7614,2.764,2.7641,2.7649,2.7691,2.7721,2.7726,2.7735,2.7727,2.774,2.7752,2.7751,2.7805,2.7794,2.7801,2.7815,2.787,2.7872,2.7874,2.7879,2.7882,2.7885,0,0,0,0,0,0,2.7617,2.7644,2.7644,2.768,2.7698,2.7721,2.7737,2.7738,2.7758,2.7757,2.7766,2.7771,2.78,2.7811,2.7798,2.7846,2.7837,2.784,2.7838,2.7841,2.7844,2.784,2.7793,0,0,0,0,0,2.7622,2.7645,2.7667,2.7696,2.7705,2.7719,2.7733,2.7738,2.7757,2.7764,2.7778,2.7795,2.7816,2.7829,2.785,2.7882,2.7886,2.7895,2.7897,2.7899,2.7902,2.7917,2.7921,2.7881,2.7881,2.7881,0,0,2.7632,2.765,2.7664,2.7697,2.7711,2.7733,2.7726,2.775,2.7766,2.7767,2.7796,2.7806,2.7826,2.7856,2.7871,2.7866,2.7914,2.7902,2.7903,2.7905,2.792,2.7923,2.7927,2.7883,2.7882,2.7882,0,0,2.7662,2.7678,2.7703,2.7718,2.774,2.7749,2.7755,2.7777,2.7784,2.7813,2.7814,2.7832,2.7869,2.7882,2.7893,2.7926,2.7925,2.7932,2.7944,2.7959,2.7962,2.7965,2.7975,2.7978,2.7934,2.7935,2.7935,0,2.7672,2.7706,2.7716,2.7739,2.7752,2.7755,2.7779,2.7793,2.782,2.7828,2.7823,2.7867,2.7881,2.7913,2.7921,2.7931,2.7936,2.7929,2.7961,2.7964,2.7967,2.7976,2.798,2.7935,2.7935,2.7935,2.7935,0,2.7715,2.7739,2.7756,2.7782,2.7798,2.7821,2.7833,2.7847,2.785,2.786,2.7887,2.7904,2.7926,2.7934,2.7938,2.7967,2.7963,2.796,2.795,2.7971,2.798,2.7983,2.7936,2.7936,2.7936,2.7935,0,0,2.7749,2.7779,2.7785,2.7796,2.782,2.7837,2.786,2.7882,2.7893,2.7912,2.793,2.7959,2.7956,2.7968,2.7973,2.7987,2.8008,2.7981,2.7982,2.7984,2.8038,2.8039,2.8043,2.8008,2.8009,2.801,2.8036,0,2.778,2.7821,2.7829,2.7865,2.7885,2.7887,2.7906,2.7922,2.7931,2.7948,2.7957,2.7977,2.7972,2.798,2.7993,2.8003,2.8019,2.8001,2.8023,2.8024,2.8017,2.8048,2.805,2.8074,2.8039,2.804,2.804,0,2.7821,2.784,2.7877,2.7896,2.7905,2.7923,2.7942,2.796,2.7977,2.7982,2.7996,2.7999,2.802,2.801,2.8039,2.8026,2.8036,2.8042,2.8043,2.8044,2.8033,2.8049,2.8083,2.8085,2.8046,2.8046,2.8045,0,2.7839,2.7874,2.79,2.791,2.7933,2.7945,2.7955,2.7971,2.7984,2.8001,2.8008,2.8028,2.8038,2.8052,2.8059,2.8051,2.8086,2.8077,2.809,2.8089,2.8096,2.8096,2.813,2.8105,2.8105,2.8105,2.8104,0,2.7872,2.7894,2.7909,2.7925,2.7949,2.7957,2.798,2.799,2.8004,2.8021,2.8024,2.8039,2.8048,2.8064,2.807,2.8092,2.8097,2.81,2.8101,2.8099,2.8099,2.8105,2.8103,2.8106,2.8105,2.8105,2.8105,0,2.7896,2.7907,2.7935,2.7955,2.796,2.7977,2.7992,2.8007,2.8015,2.8036,2.8041,2.8054,2.8073,2.8082,2.8105,2.8109,2.8133,2.8134,2.8127,2.8127,2.8139,2.8137,2.8178,2.8183,2.8155,2.8155,2.8155,0,2.7916,2.7932,2.7953,2.7965,2.7975,2.7994,2.8006,2.8015,2.8027,2.8046,2.8058,2.8077,2.8093,2.8122,2.8133,2.815,2.815,2.8163,2.8153,2.815,2.8148,2.8147,2.8148,2.8165,2.8165,2.8165,2.8166,0,2.7948,2.7952,2.797,2.799,2.8004,2.802,2.8035,2.8044,2.8054,2.8068,2.8087,2.8099,2.8123,2.8141,2.8158,2.8167,2.8167,2.8169,2.8172,2.817,2.8165,2.8166,2.8131,2.8168,2.8167,2.8167,2.8167,2.8167,2.7969,2.7984,2.8,2.8019,2.8031,2.8045,2.8059,2.8069,2.8086,2.8106,2.8109,2.8129,2.8144,2.8168,2.8177,2.8192,2.8189,2.8194,2.8195,2.8196,2.8196,2.8163,2.8195,2.8195,2.8195,2.8195,2.8195,0,2.8,2.8011,2.8029,2.8049,2.8064,2.8064,2.808,2.8092,2.811,2.8123,2.8138,2.816,2.8177,2.8188,2.8205,2.8215,2.8215,2.8219,2.8217,2.8219,2.8199,2.8193,2.8218,2.8218,2.8218,2.8218,2.8218,2.8218,2.8018,2.8042,2.8048,2.8076,2.8086,2.8106,2.8115,2.8127,2.8138,2.8162,2.8176,2.8184,2.8196,2.8213,2.8228,2.8231,2.8237,2.824,2.8242,2.8223,2.8221,2.8218,2.8213,2.8242,2.8242,2.8261,2.8262,2.8262]}]]